STARLINK-33713, 63479

Orbit data source: Space-Track

STARLINK-33713, 63479 is a payload satellite owned by SpaceX/Seattle (US) in LEO that was launched on Sun, 06 Apr 2025 UTC via an FALCON 9 launch vehicle from the Air Force Eastern Test Range (AFETR). Payload-class satellites include a variety of spacecraft equipped with specific instruments for various scientific and technological missions. These include communications satellites like Starlink; space stations such as the ISS; scientific satellites like the Hubble; Earth observation satellites from companies like Planet Labs, Umbra, and HawkEye 360; GPS; miniature CubeSats for education and research; and military/defense satellites.

Loading next visibility...
Identifier
63479, 2025-070V
Orbit
LEO
Country
Flag of USUS
Related business
Manufacturer
SpaceX/Seattle
Mission
Operational Commercial Communications
Bus & Motor
STARLINK V2MO, Unknown motor
Mass
575 kg wet, ~530 kg dry
Launch date (UTC)
2025-04-06 (1 year ago)
Launch vehicle
FALCON 9
Launch site
Air Force Eastern Test Range (AFETR)
Object type
Payload
Rocket body
Debris
Shape & HBR
Box + 2 Pan, 17.7 m
Radar Cross Section
36.964 m², Large (>1 m²)

Expand to show TLE details & history
Last TLE update: 1 day ago

TLE from 1 day ago
0 STARLINK-33713
1 63479U 25070V   26169.08814575  .00013112  00000-0  48501-3 0  9994
2 63479  43.0016  49.0935 0001519 277.6930  82.3749 15.27590815 68375
Epoch: 2026-06-18T02:06Z
TLE epoch observation values (Epoch: 2026-06-18T02:06:55.792Z)
Latitude
-0.00004°
Longitude
111.02449°
Altitude
482.654 km
Speed
7.626 km/s
True Right ascension
03h 16m 22s
True Declination
0° 00' 00"
Sunlit
Object was in daylight at epoch
Visualization orbit readout
Latitude
Unknown
Longitude
Unknown
Altitude
Unknown
Speed
Unknown
Apparent Right ascension
Unknown
Apparent Declination
Unknown
Sunlit
N/A
Visualization observer readout
Local Sidereal Time
15:37:11
Azimuth
Unknown
Elevation
Unknown
Doppler factor
Unknown
Orbital elements
Apogee altitude
486.004 km
Perigee altitude
483.919 km
Semi-major axis
6,863.099 km
Eccentricity
0.00015
Inclination
43.0016°
RAAN
49.0935°
Arg. of periapsis
277.693°
True anomaly
82.39215°
Mean anomaly
82.3749°
Eccentric anomaly
82.38353°
Mean motion
3.81736 °/min
Orbital period
94.31 mins
BSTAR
0.00048501
Loading maneuver chart data...
Computing Atmospheric mass density...
Loading historical data...
Loading historical data...
Loading historical data...
Loading historical data...
Loading historical data...
Loading historical data...
Loading historical data...

Documentation

Showing up to 5 results
|